Location: Newark
(47.4417°N, 1.1394°W)
Time: 05:46:56
(UTC+00:00)

Envisat - Pass Details

Date: 18 November 2019
Orbit: 764 x 766 km, 98.1° (Epoch: 13 December)

Event Time Altitude Azimuth Distance (km) Brightness Sun altitude
Rises 19:34:03 0° 218° (SW) 3,223 6.6 -31.6°
Reaches altitude 10° 19:37:38 10° 245° (WSW) 2,303 6.1 -32.2°
Maximum altitude 19:40:03 13° 273° (W) 2,081 6.0 -32.6°
Drops below altitude 10° 19:42:28 10° 302° (WNW) 2,311 6.2 -33.0°
Sets 19:46:06 0° 329° (NNW) 3,244 6.7 -33.6°
